Weather History for KRUT - July, 2013

Change the Weather History Date:

Monday, July 29, 2013

  Actual Average Record
Temperature  
Mean Temperature 68 °F -  
Max Temperature 79 °F - 92 °F (1963)
Min Temperature 57 °F - 44 °F (1987)
Degree Days  
Heating Degree Days 0    
Month to date heating degree days 16  
Since 1 June heating degree days 123  
Since 1 July heating degree days 16  
Cooling Degree Days 3    
Month to date cooling degree days 201  
Year to date cooling degree days 302  
Since 1 June cooling degree days 275  
Growing Degree Days 18 (Base 50)    
Moisture  
Dew Point 59 °F    
Average Humidity 72    
Maximum Humidity 100    
Minimum Humidity 43    
Precipitation  
Precipitation 0.00 in - 1.90 in (1986)
Month to date precipitation 4.24  
Year to date precipitation 13.82  
Sea Level Pressure  
Sea Level Pressure 30.02 in    
Wind  
Wind Speed 5 mph (SW)    
Max Wind Speed 13 mph    
Max Gust Speed 16 mph    
Visibility 9 miles    
Events      
T = Trace of Precipitation, MM = Missing Value Source: NWS Daily Summary

Daily Weather History Graph

Daily Weather History Graph

Search for Another Location

Airport or City:

Trip Planner

Search our weather history database for the weather conditions in past years. The results will help you decide how hot, cold, wet, or windy it might be!

Date:

Astronomy

Jul. 29, 2013 Rise Set
Actual Time 5:38 AM EDT 8:17 PM EDT
Civil Twilight 5:05 AM EDT 8:50 PM EDT
Nautical Twilight 4:23 AM EDT 9:31 PM EDT
Astronomical Twilight 3:36 AM EDT 10:18 PM EDT
Moon 11:57 PM EDT (7/29) 1:33 PM EDT (7/29)
Length of Visible Light 15h 45m
Length of Day
14h 39m
Waning Gibbous, 51% of the Moon is Illuminated
Jul 29
Waning Gibbous
Jul 29
Last Quarter
Aug 6
New
Aug 14
First Quarter
Aug 20
Full

Hourly Weather History & Observations

Time (EDT) Temp. Dew Point Humidity Pressure Visibility Wind Dir Wind Speed Gust Speed Precip Events Conditions
12:15 AM 68.0 °F 64.4 °F 88% 29.98 in 10.0 mi South 5.8 mph - N/A   Overcast
12:35 AM 68.0 °F 64.4 °F 88% 29.98 in 10.0 mi SW 3.5 mph - N/A   Overcast
12:55 AM 68.0 °F 64.4 °F 88% 29.98 in 10.0 mi SE 5.8 mph - N/A   Overcast
1:15 AM 66.2 °F 64.4 °F 94% 29.98 in 10.0 mi SSE 3.5 mph - N/A   Overcast
1:35 AM 68.0 °F 64.4 °F 88% 29.98 in 10.0 mi SE 8.1 mph - N/A   Overcast
1:55 AM 66.2 °F 64.4 °F 94% 29.98 in 10.0 mi SSE 3.5 mph - N/A   Overcast
2:15 AM 66.2 °F 64.4 °F 94% 29.98 in 10.0 mi Calm Calm - N/A   Overcast
2:35 AM 66.2 °F 64.4 °F 94% 29.98 in 10.0 mi SE 4.6 mph - N/A   Overcast
2:55 AM 66.2 °F 64.4 °F 94% 29.98 in 10.0 mi South 3.5 mph - N/A   Overcast
3:15 AM 66.2 °F 64.4 °F 94% 29.98 in 10.0 mi Calm Calm - N/A   Mostly Cloudy
3:35 AM 66.2 °F 64.4 °F 94% 29.98 in 9.0 mi South 3.5 mph - N/A   Mostly Cloudy
3:55 AM 64.4 °F 64.4 °F 100% 29.99 in 5.0 mi Calm Calm - N/A   Mostly Cloudy
4:15 AM 64.4 °F 64.4 °F 100% 29.98 in 5.0 mi Calm Calm - N/A   Mostly Cloudy
4:35 AM 64.4 °F 62.6 °F 94% 29.99 in 4.0 mi Calm Calm - N/A   Mostly Cloudy
4:55 AM 64.4 °F 62.6 °F 94% 30.00 in 6.0 mi Calm Calm - N/A   Scattered Clouds
5:15 AM 62.6 °F 62.6 °F 100% 30.00 in 5.0 mi Calm Calm - N/A   Partly Cloudy
5:35 AM 64.4 °F 62.6 °F 94% 29.99 in 5.0 mi SE 3.5 mph - N/A   Mostly Cloudy
5:55 AM 62.6 °F 60.8 °F 94% 29.99 in 2.5 mi Calm Calm - N/A   Partly Cloudy
6:15 AM 62.6 °F 62.6 °F 100% 30.00 in 5.0 mi SSE 5.8 mph - N/A   Scattered Clouds
6:35 AM 62.6 °F 62.6 °F 100% 30.01 in 5.0 mi Calm Calm - N/A   Scattered Clouds
6:55 AM 62.6 °F 62.6 °F 100% 30.01 in 7.0 mi ESE 3.5 mph - N/A   Partly Cloudy
7:15 AM 64.4 °F 62.6 °F 94% 30.01 in 8.0 mi Calm Calm - N/A   Partly Cloudy
7:35 AM 64.4 °F 62.6 °F 94% 30.01 in 8.0 mi Calm Calm - N/A   Scattered Clouds
7:55 AM 66.2 °F 64.4 °F 94% 30.01 in 10.0 mi ESE 3.5 mph - N/A   Scattered Clouds
8:15 AM 66.2 °F 64.4 °F 94% 30.02 in 10.0 mi Calm Calm - N/A   Partly Cloudy
8:35 AM 68.0 °F 64.4 °F 88% 30.02 in 10.0 mi Calm Calm - N/A   Scattered Clouds
8:55 AM 69.8 °F 64.4 °F 83% 30.03 in 10.0 mi East 3.5 mph - N/A   Mostly Cloudy
9:15 AM 69.8 °F 64.4 °F 83% 30.03 in 10.0 mi SW 3.5 mph - N/A   Mostly Cloudy
9:35 AM 69.8 °F 64.4 °F 83% 30.03 in 10.0 mi SW 3.5 mph - N/A   Scattered Clouds
9:55 AM 71.6 °F 64.4 °F 78% 30.03 in 10.0 mi North 4.6 mph - N/A   Mostly Cloudy
10:15 AM 71.6 °F 64.4 °F 78% 30.03 in 10.0 mi Calm Calm - N/A   Mostly Cloudy
10:35 AM 71.6 °F 59.0 °F 64% 30.03 in 10.0 mi SW 4.6 mph - N/A   Clear
10:55 AM 73.4 °F 59.0 °F 61% 30.03 in 10.0 mi West 6.9 mph - N/A   Clear
11:15 AM 73.4 °F 55.4 °F 53% 30.03 in 10.0 mi West 4.6 mph - N/A   Clear
11:35 AM 75.2 °F 51.8 °F 44% 30.03 in 10.0 mi West 6.9 mph - N/A   Clear
11:55 AM 75.2 °F 53.6 °F 47% 30.03 in 10.0 mi West 9.2 mph - N/A   Clear
12:15 PM 75.2 °F 53.6 °F 47% 30.02 in 10.0 mi SW 4.6 mph - N/A   Clear
12:35 PM 75.2 °F 53.6 °F 47% 30.02 in 10.0 mi West 6.9 mph - N/A   Clear
12:55 PM 75.2 °F 55.4 °F 50% 30.02 in 10.0 mi WSW 5.8 mph - N/A   Clear
1:15 PM 75.2 °F 57.2 °F 53% 30.02 in 10.0 mi West 9.2 mph - N/A   Scattered Clouds
1:35 PM 77.0 °F 57.2 °F 50% 30.02 in 7.0 mi West 10.4 mph - N/A   Scattered Clouds
1:55 PM 77.0 °F 57.2 °F 50% 30.02 in 10.0 mi West 9.2 mph - N/A   Partly Cloudy
2:15 PM 77.0 °F 57.2 °F 50% 30.02 in 10.0 mi West 9.2 mph - N/A   Clear
2:35 PM 77.0 °F 57.2 °F 50% 30.02 in 10.0 mi West 9.2 mph - N/A   Clear
2:55 PM 77.0 °F 55.4 °F 47% 30.01 in 10.0 mi SW 10.4 mph - N/A   Clear
3:15 PM 78.8 °F 57.2 °F 47% 30.01 in 10.0 mi West 10.4 mph 16.1 mph N/A   Partly Cloudy
3:35 PM 77.0 °F 55.4 °F 47% 30.01 in 10.0 mi WSW 9.2 mph - N/A   Scattered Clouds
3:55 PM 77.0 °F 55.4 °F 47% 30.02 in 10.0 mi West 12.7 mph 16.1 mph N/A   Mostly Cloudy
4:15 PM 77.0 °F 55.4 °F 47% 30.02 in 10.0 mi WSW 11.5 mph 18.4 mph N/A   Mostly Cloudy
4:35 PM 77.0 °F 55.4 °F 47% 30.02 in 10.0 mi SW 13.8 mph 18.4 mph N/A   Mostly Cloudy
4:55 PM 77.0 °F 55.4 °F 47% 30.02 in 10.0 mi West 9.2 mph - N/A   Scattered Clouds
5:15 PM 75.2 °F 53.6 °F 47% 30.01 in 10.0 mi West 11.5 mph 16.1 mph N/A   Partly Cloudy
5:35 PM 75.2 °F 53.6 °F 47% 30.01 in 10.0 mi West 9.2 mph - N/A   Partly Cloudy
5:55 PM 75.2 °F 53.6 °F 47% 30.02 in 10.0 mi West 8.1 mph - N/A   Clear
6:15 PM 75.2 °F 51.8 °F 44% 30.02 in 10.0 mi WNW 6.9 mph - N/A   Clear
6:35 PM 75.2 °F 51.8 °F 44% 30.02 in 10.0 mi SW 4.6 mph - N/A   Clear
6:55 PM 75.2 °F 51.8 °F 44% 30.02 in 10.0 mi SW 5.8 mph - N/A   Clear
7:15 PM 75.2 °F 53.6 °F 47% 30.02 in 10.0 mi Calm Calm - N/A   Clear
7:35 PM 73.4 °F 55.4 °F 53% 30.03 in 10.0 mi West 6.9 mph - N/A   Clear
7:55 PM 71.6 °F 53.6 °F 53% 30.04 in 10.0 mi WNW 5.8 mph - N/A   Clear
8:15 PM 69.8 °F 51.8 °F 53% 30.05 in 10.0 mi WNW 3.5 mph - N/A   Clear
8:35 PM 69.8 °F 50.0 °F 49% 30.06 in 10.0 mi WNW 4.6 mph - N/A   Clear
8:55 PM 66.2 °F 55.4 °F 68% 30.07 in 10.0 mi SE 5.8 mph - N/A   Clear
9:15 PM 64.4 °F 55.4 °F 73% 30.08 in 10.0 mi Calm Calm - N/A   Partly Cloudy
9:35 PM 64.4 °F 55.4 °F 73% 30.09 in 10.0 mi SE 3.5 mph - N/A   Partly Cloudy
9:55 PM 60.8 °F 55.4 °F 82% 30.10 in 10.0 mi SE 4.6 mph - N/A   Scattered Clouds
10:15 PM 62.6 °F 55.4 °F 77% 30.10 in 10.0 mi ENE 3.5 mph - N/A   Mostly Cloudy
10:35 PM 62.6 °F 53.6 °F 72% 30.10 in 10.0 mi Calm Calm - N/A   Scattered Clouds
10:55 PM 60.8 °F 55.4 °F 82% 30.10 in 10.0 mi ESE 4.6 mph - N/A   Scattered Clouds
11:15 PM 59.0 °F 55.4 °F 88% 30.10 in 10.0 mi SE 6.9 mph - N/A   Mostly Cloudy
11:35 PM 59.0 °F 53.6 °F 82% 30.10 in 10.0 mi SE 5.8 mph - N/A   Partly Cloudy
11:55 PM 57.2 °F 53.6 °F 88% 30.11 in 10.0 mi SE 5.8 mph - N/A   Clear